Regional Weather Roundup
Issued by NWS Albany, NY

Home | Current Version | Previous Version | Text Only | Print | Product List | Glossary On
Versions: 1 2 3 4 5 6 7 8 9 10 11 12 13 14 15 16 17 18 19 20 21 22 23 24 25 26 27 28 29 30 31 32 33 34 35 36 37 38 39 40 41 42 43 44 45 46 47 48 49 50
000
ASUS41 KALY 231110
RWRALY

NEW YORK STATE HOURLY WEATHER ROUNDUP
NATIONAL WEATHER SERVICE ALBANY NY
700 AM EDT WED JUL 23 2014

NOTE: "FAIR" INDICATES FEW OR NO CLOUDS BELOW 12,000 FEET WITH NO
SIGNIFICANT WEATHER AND/OR NO OBSTRUCTIONS TO VISIBILITY.

NYZ032-033-038>043-046>054-057>066-NYZ062>081-231200-
EAST


CITY           SKY/WX    TMP DP  RH WIND       PRES   REMARKS
ALBANY         MOSUNNY   74  69  85 S8        29.91S
GLENS FALLS    SUNNY     72  68  87 S7        29.90R
POUGHKEEPSIE   MOSUNNY   74  68  81 CALM      29.95S
NEWBURGH       MOSUNNY   72  68  88 W5        29.98S
MONTGOMERY     SUNNY     70  67  90 CALM      29.97R
WHITE PLAINS   MOSUNNY   71  65  81 CALM      29.98S
ISLIP          PTSUNNY   73  67  81 SW8       29.98S
NEW YORK CITY  MOSUNNY   74  64  71 SW10      29.97S
CENTRAL PARK   MOSUNNY   73  63  70 VRB3      30.01R
$$

NYZ005>009-017-018-044>046-055-056-231200-
CENTRAL


CITY           SKY/WX    TMP DP  RH WIND       PRES   REMARKS
FULTON         SUNNY     77  69  76 SW12      29.87R
SYRACUSE       PTSUNNY   80  69  69 SW12      29.87R
ROME           PTSUNNY   73  69  87 E6        29.89S
ELMIRA         MOSUNNY   69  68  96 CALM      29.96R
BINGHAMTON     MOSUNNY   70  68  93 SW10      29.99R
MONTICELLO     MOSUNNY   66  66 100 CALM      30.02R
$$

NYZ026>034-041>043-231200-
NORTH


CITY           SKY/WX    TMP DP  RH WIND       PRES   REMARKS
WATERTOWN      MOSUNNY   78  67  68 SW10      29.83R
FORT DRUM      NOT AVBL
MASSENA        PTSUNNY   75  70  84 SW12      29.78S
SARANAC LAKE   PTSUNNY   70  67  90 SW3       29.88S
PLATTSBURGH    MOSUNNY   70  67  90 CALM      29.81R
$$

NYZ001>004-010>016-019>021-231200-
WEST


CITY           SKY/WX    TMP DP  RH WIND       PRES   REMARKS
NIAGARA FALLS  CLOUDY    74  70  87 SW7       29.86F FOG
BUFFALO        CLOUDY    76  69  79 SW9       29.89S
DUNKIRK        CLOUDY    77  66  68 SW13G24   29.87F
JAMESTOWN      CLOUDY    70  66  88 S8        29.97F
WELLSVILLE     PTSUNNY   73  66  78 SW10      30.01S
ROCHESTER      CLOUDY    74  68  81 SW8       29.88R
PENN YAN       PTSUNNY   74  69  85 S8        29.93R
$$

             KEY
       WCI = WIND CHILL INDEX
       VSB = VISIBILITY
       HX  = HEAT INDEX
$$



USA.gov is the U.S. government's official web portal to all federal, state and local government web resources and services.